Vorticity
nan nan nan nan nan nan nan nan nan nan nan nan nan nan nan nan nan nan nan nan nan nan nan nan nan nan nan nan nan nan nan nan nan
nan 7 7 7 6 5 6 6 5 8 7 5 4 3 8 12 6 5 6 11 9 5 4 6 5 5 5 5 4 4 5 6 nan
nan 7 10 11 8 7 5 5 6 6 6 5 5 7 12 7 6 5 6 10 7 6 5 6 6 5 5 6 7 6 3 4 nan
nan 5 9 8 7 7 7 6 6 6 5 5 4 5 11 12 7 7 7 8 8 7 7 6 5 5 5 6 8 9 6 4 nan
nan 8 9 6 6 6 6 6 6 5 4 3 5 7 8 8 6 6 12 12 8 8 9 8 8 9 8 7 7 9 11 7 nan
nan 10 13 8 7 7 6 4 2 -0 0 3 5 7 8 7 8 8 12 14 11 9 10 10 10 9 9 10 10 10 11 14 nan
nan 5 6 6 6 1 1 1 2 1 -0 2 6 7 6 7 9 12 11 8 7 6 7 8 8 7 7 8 9 10 10 11 nan
nan 4 4 4 1 2 2 3 5 7 7 8 9 8 5 5 7 11 12 8 5 5 5 5 6 6 6 5 6 6 7 7 nan
nan 6 8 7 5 7 4 7 8 7 9 9 6 7 7 8 6 6 13 9 8 6 5 4 5 6 6 7 6 5 6 5 nan
nan 6 3 9 9 8 8 8 6 5 5 8 7 6 6 9 10 5 5 10 7 7 7 7 5 4 4 5 6 6 6 6 nan
nan 6 7 4 9 13 8 8 6 6 6 7 5 5 6 5 9 9 2 4 8 8 7 7 7 6 6 5 5 5 5 5 nan
nan 6 6 7 8 5 9 8 7 7 5 5 6 7 7 6 7 9 6 -1 3 7 8 7 7 7 6 6 6 6 6 6 nan
nan 7 7 7 6 7 7 6 6 6 9 6 7 8 7 8 7 9 10 10 2 0 8 9 8 7 6 6 6 6 7 7 nan
nan 8 9 7 6 8 7 9 9 7 8 7 8 9 8 7 7 8 8 10 9 5 1 3 6 9 8 6 6 5 6 6 nan
nan 9 9 8 7 7 8 8 8 9 8 6 7 8 8 8 7 6 6 8 8 7 4 2 0 3 9 8 7 6 5 5 nan
nan 9 8 8 9 10 8 8 8 7 3 1 4 5 6 7 8 7 7 7 6 8 8 8 6 1 1 5 8 7 6 5 nan
nan 9 9 8 7 9 8 5 4 6 2 2 5 4 3 5 7 8 7 7 7 6 7 9 9 7 3 3 5 7 7 6 nan
nan 8 10 9 6 8 8 5 4 4 10 6 3 9 11 5 4 6 7 7 7 7 6 7 8 9 8 6 4 5 6 6 nan
nan 10 10 9 8 9 7 6 5 7 6 3 5 13 13 8 8 6 6 6 7 7 7 7 8 8 6 5 5 5 5 5 nan
nan nan nan nan nan nan nan nan nan nan nan nan nan nan nan nan nan nan nan nan nan nan nan nan nan nan nan nan nan nan nan nan nan
CAPE
919 823 455 536 805 1041 1150 967 798 898 1015 619 517 372 415 244 259 362 541 491 683 677 490 267 142 94 5 41 3 8 84 322 260
761 669 258 340 688 959 822 702 753 658 605 435 328 259 171 105 75 127 446 532 616 554 362 212 167 262 2 17 65 75 21 149 48
412 661 834 743 710 661 685 704 567 491 407 241 133 170 162 259 335 410 518 579 540 416 340 179 183 216 168 84 61 59 26 5 2
293 836 970 1004 593 511 509 461 393 301 152 55 67 86 147 230 243 263 392 460 555 519 429 343 216 185 182 155 200 165 149 15 3
337 240 494 860 773 459 309 247 173 77 3 0 0 43 97 168 241 181 306 476 481 468 407 340 302 242 220 214 221 183 147 45 22
91 74 168 389 419 232 166 110 35 2 0 0 0 23 97 104 180 192 269 375 422 336 289 313 312 260 214 196 161 185 170 161 48
11 0 80 178 139 61 16 6 0 1 0 0 0 33 55 78 148 253 208 361 354 313 269 230 188 177 169 151 160 174 178 154 148
0 0 0 0 0 1 0 0 0 0 0 0 0 3 3 3 30 137 169 284 293 263 154 101 68 54 42 43 55 52 49 47 52
0 0 0 0 0 0 0 0 0 0 0 0 0 0 0 0 0 0 52 197 189 156 94 40 20 20 21 33 35 29 29 20 25
0 0 0 0 0 0 0 0 0 0 0 0 0 0 0 0 0 0 0 27 30 34 39 43 38 18 26 28 32 30 30 28 24
0 0 0 0 0 0 0 0 0 0 0 0 0 0 0 0 0 0 0 14 25 25 39 32 19 17 14 17 19 22 18 17 17
0 0 0 0 0 0 0 0 0 0 0 0 0 0 0 0 0 0 0 0 6 16 25 23 17 13 11 16 16 12 12 15 15
0 0 0 0 0 0 0 0 0 0 0 0 0 0 0 0 0 0 0 0 0 1 7 10 11 13 16 16 17 15 12 11 10
0 0 0 0 0 0 0 0 0 0 0 0 0 0 0 0 0 0 0 0 0 0 2 2 3 10 15 19 20 20 16 12 12
0 0 0 0 0 0 0 0 0 0 0 0 0 0 0 0 0 0 0 0 0 0 0 0 0 3 11 17 22 22 16 15 13
0 0 0 0 0 0 0 0 0 0 0 0 0 0 0 0 0 0 0 0 0 0 0 0 0 0 1 5 10 13 14 14 13
0 0 0 0 0 0 0 0 0 0 0 0 0 0 0 0 0 0 0 0 0 0 0 0 0 0 0 0 0 4 10 13 12
0 0 0 0 0 0 0 0 0 0 0 0 0 0 0 0 0 0 0 0 0 0 0 0 0 0 0 0 0 1 5 9 13
0 0 0 0 0 0 0 0 0 0 0 0 0 0 0 0 0 0 0 0 0 0 0 0 0 0 0 0 0 0 0 0 2
0 0 0 0 0 0 0 0 0 0 0 0 0 0 0 0 0 0 0 0 0 0 0 0 0 0 0 0 0 0 0 0 0